When you browse on this site, cookies collect data to enhance your experience and personalize the content and advertising you see.
Visit our Privacy Policy to learn more. By continuing to use the site, you agree to this use of cookies and data.
  • In Austria
  • List of Countries
  • For 7 days
  • Water Temperature
  • Weather Map
  • News
  • Weather Widgets
  • user-avatar
    Login

    Hourly Weather Wani

    Today, 31 May, Sunday

    Time Temperature Precipitation Wind Pressure Humidity
    00:00 +35°C° 0 mm 2 mps 736 mmHg 42%
    01:00 +35°C° 0 mm 2 mps 736 mmHg 43%
    02:00 +34°C° 0 mm 2 mps 735 mmHg 44%
    03:00 +34°C° 0 mm 2 mps 736 mmHg 47%
    04:00 +34°C° 0 mm 2 mps 736 mmHg 49%
    05:00 +32°C° 0 mm 2 mps 737 mmHg 51%
    06:00 +35°C° 0 mm 3 mps 737 mmHg 47%
    07:00 +37°C° 0 mm 3 mps 737 mmHg 43%
    08:00 +38°C° 0 mm 3 mps 738 mmHg 40%
    09:00 +41°C° 0 mm 2 mps 738 mmHg 33%
    10:00 +43°C° 0 mm 1 mps 737 mmHg 27%
    11:00 +44°C° 0 mm 1 mps 738 mmHg 22%
    12:00 +45°C° 0 mm 1 mps 737 mmHg 20%
    13:00 +45°C° 0 mm 1 mps 736 mmHg 18%
    14:00 +46°C° 0 mm 1 mps 735 mmHg 16%
    15:00 +45°C° 0 mm 1 mps 735 mmHg 16%
    16:00 +46°C° 0 mm 2 mps 735 mmHg 16%
    17:00 +45°C° 0 mm 2 mps 734 mmHg 19%
    18:00 +44°C° 0 mm 3 mps 735 mmHg 25%
    19:00 +42°C° 0 mm 4 mps 736 mmHg 30%
    20:00 +40°C° 0 mm 5 mps 736 mmHg 36%
    21:00 +38°C° 0.1 mm 6 mps 737 mmHg 42%
    22:00 +35°C° 0.1 mm 6 mps 737 mmHg 49%
    23:00 +33°C° 0.1 mm 7 mps 737 mmHg 56%

    Tomorrow, 1 June, Monday

    Time Temperature Precipitation Wind Pressure Humidity
    00:00 +33°C° 0 mm 6 mps 737 mmHg 55%
    01:00 +33°C° 0 mm 5 mps 737 mmHg 55%
    02:00 +33°C° 0 mm 3 mps 736 mmHg 54%
    03:00 +33°C° 0 mm 3 mps 736 mmHg 53%
    04:00 +33°C° 0 mm 3 mps 737 mmHg 52%
    05:00 +33°C° 0 mm 3 mps 737 mmHg 51%
    06:00 +35°C° 0 mm 3 mps 737 mmHg 46%
    07:00 +36°C° 0 mm 3 mps 738 mmHg 42%
    08:00 +37°C° 0 mm 3 mps 738 mmHg 38%
    09:00 +39°C° 0 mm 3 mps 738 mmHg 35%
    10:00 +40°C° 0 mm 3 mps 738 mmHg 31%
    11:00 +42°C° 0 mm 3 mps 738 mmHg 28%
    12:00 +42°C° 0 mm 2 mps 737 mmHg 26%
    13:00 +43°C° 0 mm 2 mps 736 mmHg 24%
    14:00 +43°C° 0 mm 1 mps 735 mmHg 23%
    15:00 +42°C° 0.1 mm 4 mps 735 mmHg 27%
    16:00 +40°C° 0.1 mm 6 mps 734 mmHg 32%
    17:00 +38°C° 0.1 mm 9 mps 734 mmHg 37%
    18:00 +38°C° 0.2 mm 6 mps 735 mmHg 38%
    19:00 +36°C° 0.2 mm 4 mps 736 mmHg 39%
    20:00 +36°C° 0.2 mm 2 mps 736 mmHg 40%
    21:00 +35°C° 0.5 mm 2 mps 736 mmHg 42%
    22:00 +35°C° 0.5 mm 2 mps 737 mmHg 45%
    23:00 +34°C° 0.5 mm 2 mps 737 mmHg 47%

    Day after tomorrow, 2 June, Tuesday

    Time Temperature Precipitation Wind Pressure Humidity
    00:00 +34°C° 0 mm 2 mps 736 mmHg 47%
    01:00 +34°C° 0 mm 2 mps 736 mmHg 47%
    02:00 +34°C° 0 mm 2 mps 736 mmHg 47%
    03:00 +34°C° 0.1 mm 2 mps 736 mmHg 48%
    04:00 +33°C° 0.1 mm 3 mps 736 mmHg 48%
    05:00 +33°C° 0.1 mm 3 mps 737 mmHg 49%
    06:00 +33°C° 0.1 mm 3 mps 737 mmHg 48%
    07:00 +34°C° 0.1 mm 3 mps 738 mmHg 48%
    08:00 +34°C° 0.1 mm 2 mps 738 mmHg 47%
    09:00 +34°C° 0 mm 2 mps 738 mmHg 46%
    10:00 +35°C° 0 mm 2 mps 738 mmHg 44%
    11:00 +35°C° 0 mm 2 mps 737 mmHg 43%
    12:00 +37°C° 0 mm 2 mps 737 mmHg 38%
    13:00 +38°C° 0 mm 2 mps 736 mmHg 34%
    14:00 +40°C° 0 mm 2 mps 736 mmHg 30%
    15:00 +40°C° 0 mm 2 mps 735 mmHg 30%
    16:00 +40°C° 0 mm 2 mps 735 mmHg 30%
    17:00 +40°C° 0 mm 1 mps 735 mmHg 30%
    18:00 +39°C° 0.4 mm 2 mps 735 mmHg 33%
    19:00 +37°C° 0.4 mm 3 mps 735 mmHg 35%
    20:00 +36°C° 0.4 mm 3 mps 736 mmHg 38%
    21:00 +35°C° 0.2 mm 3 mps 736 mmHg 41%
    22:00 +34°C° 0.2 mm 3 mps 736 mmHg 43%
    23:00 +31°C° 0.2 mm 3 mps 736 mmHg 46%

    3 June, Wednesday

    Time Temperature Precipitation Wind Pressure Humidity
    00:00 +31°C° 0.7 mm 3 mps 736 mmHg 51%
    01:00 +30°C° 0.7 mm 3 mps 736 mmHg 56%
    02:00 +29°C° 0.7 mm 3 mps 735 mmHg 62%
    03:00 +28°C° 2.4 mm 3 mps 735 mmHg 66%
    04:00 +27°C° 2.4 mm 2 mps 736 mmHg 71%
    05:00 +27°C° 2.4 mm 1 mps 736 mmHg 76%
    06:00 +28°C° 0.1 mm 2 mps 736 mmHg 72%
    07:00 +29°C° 0.1 mm 2 mps 736 mmHg 67%
    08:00 +30°C° 0.1 mm 2 mps 736 mmHg 63%
    09:00 +32°C° 0 mm 2 mps 736 mmHg 57%
    10:00 +35°C° 0 mm 3 mps 736 mmHg 51%
    11:00 +37°C° 0 mm 3 mps 736 mmHg 45%
    12:00 +37°C° 0 mm 4 mps 735 mmHg 44%
    13:00 +37°C° 0 mm 4 mps 734 mmHg 43%
    14:00 +39°C° 0 mm 5 mps 734 mmHg 42%
    15:00 +36°C° 2.1 mm 4 mps 733 mmHg 49%
    16:00 +35°C° 2.1 mm 3 mps 733 mmHg 56%
    17:00 +33°C° 2.1 mm 3 mps 733 mmHg 63%
    18:00 +33°C° 0 mm 3 mps 733 mmHg 62%
    19:00 +33°C° 0 mm 3 mps 734 mmHg 62%
    20:00 +33°C° 0 mm 3 mps 735 mmHg 61%
    21:00 +33°C° 0 mm 3 mps 735 mmHg 59%
    22:00 +33°C° 0 mm 3 mps 735 mmHg 57%
    23:00 +33°C° 0 mm 3 mps 735 mmHg 55%

    4 June, Thursday

    Time Temperature Precipitation Wind Pressure Humidity
    00:00 +33°C° 0 mm 4 mps 734 mmHg 55%
    01:00 +32°C° 0 mm 4 mps 734 mmHg 55%
    02:00 +32°C° 0 mm 5 mps 734 mmHg 55%
    03:00 +32°C° 0 mm 5 mps 734 mmHg 56%
    04:00 +30°C° 0 mm 5 mps 734 mmHg 58%
    05:00 +30°C° 0 mm 5 mps 734 mmHg 60%
    06:00 +32°C° 0 mm 6 mps 734 mmHg 57%
    07:00 +32°C° 0 mm 7 mps 735 mmHg 53%
    08:00 +33°C° 0 mm 7 mps 735 mmHg 50%
    09:00 +34°C° 0 mm 7 mps 735 mmHg 47%
    10:00 +36°C° 0 mm 7 mps 735 mmHg 44%
    11:00 +38°C° 0 mm 6 mps 735 mmHg 41%
    12:00 +38°C° 0 mm 6 mps 735 mmHg 41%
    13:00 +38°C° 0 mm 6 mps 734 mmHg 40%
    14:00 +37°C° 0 mm 5 mps 734 mmHg 40%
    15:00 +37°C° 0 mm 5 mps 734 mmHg 39%
    16:00 +37°C° 0 mm 5 mps 734 mmHg 39%
    17:00 +37°C° 0 mm 4 mps 734 mmHg 38%
    18:00 +36°C° 0 mm 4 mps 734 mmHg 42%
    19:00 +35°C° 0 mm 4 mps 734 mmHg 46%
    20:00 +34°C° 0 mm 5 mps 735 mmHg 50%
    21:00 +33°C° 0 mm 5 mps 735 mmHg 50%
    22:00 +33°C° 0 mm 5 mps 735 mmHg 50%
    23:00 +32°C° 0 mm 5 mps 735 mmHg 50%

    5 June, Friday

    Time Temperature Precipitation Wind Pressure Humidity
    00:00 +32°C° 0 mm 5 mps 735 mmHg 52%
    01:00 +30°C° 0 mm 4 mps 735 mmHg 53%
    02:00 +30°C° 0 mm 4 mps 734 mmHg 55%
    03:00 +30°C° 0 mm 4 mps 735 mmHg 55%
    04:00 +29°C° 0 mm 4 mps 735 mmHg 56%
    05:00 +29°C° 0 mm 3 mps 735 mmHg 56%
    06:00 +30°C° 0 mm 4 mps 735 mmHg 51%
    07:00 +33°C° 0 mm 4 mps 736 mmHg 47%
    08:00 +34°C° 0 mm 5 mps 737 mmHg 42%
    09:00 +36°C° 0 mm 5 mps 737 mmHg 38%
    10:00 +37°C° 0 mm 5 mps 737 mmHg 34%
    11:00 +40°C° 0 mm 5 mps 736 mmHg 31%
    12:00 +40°C° 0 mm 5 mps 736 mmHg 30%
    13:00 +41°C° 0 mm 5 mps 735 mmHg 29%
    14:00 +41°C° 0 mm 4 mps 735 mmHg 28%
    15:00 +41°C° 0 mm 4 mps 735 mmHg 28%
    16:00 +41°C° 0 mm 5 mps 735 mmHg 28%
    17:00 +41°C° 0 mm 5 mps 734 mmHg 29%
    18:00 +40°C° 0 mm 4 mps 735 mmHg 31%
    19:00 +38°C° 0 mm 4 mps 735 mmHg 34%
    20:00 +37°C° 0 mm 3 mps 735 mmHg 37%
    21:00 +36°C° 0 mm 3 mps 736 mmHg 39%
    22:00 +36°C° 0 mm 2 mps 736 mmHg 41%
    23:00 +35°C° 0 mm 2 mps 736 mmHg 42%
    Show more